Location: Newark
(52.3500°N, 175.9667°E)
Time: 07:02:11
(UTC+00:00)

S-56A Canister/Altair - Pass Details

Date: 21 April 2021
Orbit: 631 x 2501 km, 38.9° (Epoch: 12 May)

Event Time Altitude Azimuth Distance (km) Brightness Sun altitude
Rises 13:14:11 0° 246° (WSW) 4,075 - -24.3°
Reaches altitude 10° 13:18:01 10° 232° (SW) 2,787 - -24.2°
Maximum altitude 13:22:37 21° 186° (S) 1,791 - -24.0°
Drops below altitude 10° 13:26:22 10° 137° (SE) 2,206 - -23.8°
Sets 13:28:59 0° 121° (ESE) 3,004 - -23.6°
